When you browse on this site, cookies collect data to enhance your experience and personalize the content and advertising you see.
Visit our Privacy Policy to learn more. By continuing to use the site, you agree to this use of cookies and data.
  • In Romania
  • List of Countries
  • For 7 days
  • Water Temperature
  • Satellite Maps
  • Weather Map
  • Weather Widgets
  • user-avatar
    Login

    Hourly Weather Sankt Polten

    Today, 19 March, Tuesday

    Time Temperature Precipitation Wind Pressure Humidity
    00:00 +1°C° 0 mm 2 mps 740 mmHg 85%
    01:00 +1°C° 0 mm 2 mps 741 mmHg 86%
    02:00 +1°C° 0 mm 2 mps 741 mmHg 87%
    03:00 +1°C° 0 mm 2 mps 741 mmHg 88%
    04:00 +1°C° 0 mm 2 mps 741 mmHg 88%
    05:00 +2°C° 0 mm 1 mps 741 mmHg 87%
    06:00 +2°C° 0 mm 1 mps 742 mmHg 86%
    07:00 +3°C° 0 mm 1 mps 742 mmHg 85%
    08:00 +3°C° 0 mm 2 mps 742 mmHg 77%
    09:00 +5°C° 0 mm 2 mps 742 mmHg 68%
    10:00 +7°C° 0 mm 2 mps 742 mmHg 60%
    11:00 +7°C° 0.1 mm 2 mps 742 mmHg 58%
    12:00 +8°C° 0.1 mm 2 mps 742 mmHg 55%
    13:00 +8°C° 0.1 mm 2 mps 742 mmHg 53%
    14:00 +8°C° 0.1 mm 2 mps 742 mmHg 53%
    15:00 +8°C° 0.1 mm 2 mps 742 mmHg 54%
    16:00 +8°C° 0.1 mm 2 mps 742 mmHg 54%
    17:00 +8°C° 0 mm 1 mps 743 mmHg 60%
    18:00 +6°C° 0 mm 1 mps 744 mmHg 65%
    19:00 +4°C° 0 mm 0 mps 744 mmHg 71%
    20:00 +4°C° 0 mm 0 mps 745 mmHg 72%
    21:00 +3°C° 0 mm 0 mps 745 mmHg 73%
    22:00 +3°C° 0 mm 0 mps 746 mmHg 75%
    23:00 +2°C° 0 mm 0 mps 746 mmHg 75%

    Tomorrow, 20 March, Wednesday

    Time Temperature Precipitation Wind Pressure Humidity
    00:00 +2°C° 0 mm 0 mps 747 mmHg 76%
    01:00 +1°C° 0 mm 0 mps 747 mmHg 77%
    02:00 +1°C° 0 mm 0 mps 747 mmHg 77%
    03:00 +1°C° 0 mm 0 mps 747 mmHg 78%
    04:00 0°C° 0 mm 0 mps 747 mmHg 78%
    05:00 +1°C° 0 mm 0 mps 748 mmHg 76%
    06:00 +1°C° 0 mm 0 mps 748 mmHg 74%
    07:00 +2°C° 0 mm 0 mps 748 mmHg 72%
    08:00 +5°C° 0 mm 1 mps 749 mmHg 64%
    09:00 +7°C° 0 mm 1 mps 749 mmHg 55%
    10:00 +9°C° 0 mm 1 mps 749 mmHg 47%
    11:00 +10°C° 0 mm 1 mps 749 mmHg 45%
    12:00 +11°C° 0 mm 1 mps 749 mmHg 44%
    13:00 +11°C° 0 mm 1 mps 749 mmHg 42%
    14:00 +11°C° 0 mm 1 mps 748 mmHg 43%
    15:00 +11°C° 0 mm 1 mps 748 mmHg 43%
    16:00 +11°C° 0 mm 1 mps 748 mmHg 44%
    17:00 +9°C° 0 mm 1 mps 748 mmHg 50%
    18:00 +6°C° 0 mm 0 mps 749 mmHg 56%
    19:00 +4°C° 0 mm 0 mps 749 mmHg 63%
    20:00 +4°C° 0 mm 0 mps 749 mmHg 65%
    21:00 +3°C° 0 mm 0 mps 750 mmHg 66%
    22:00 +4°C° 0 mm 1 mps 750 mmHg 68%
    23:00 +3°C° 0 mm 1 mps 750 mmHg 70%

    Day after tomorrow, 21 March, Thursday

    Time Temperature Precipitation Wind Pressure Humidity
    00:00 +3°C° 0 mm 1 mps 750 mmHg 71%
    01:00 +3°C° 0 mm 1 mps 750 mmHg 72%
    02:00 +3°C° 0 mm 1 mps 750 mmHg 72%
    03:00 +2°C° 0 mm 1 mps 750 mmHg 73%
    04:00 +2°C° 0 mm 1 mps 749 mmHg 73%
    05:00 +3°C° 0 mm 1 mps 750 mmHg 71%
    06:00 +3°C° 0 mm 1 mps 750 mmHg 69%
    07:00 +4°C° 0 mm 1 mps 750 mmHg 68%
    08:00 +6°C° 0 mm 1 mps 750 mmHg 59%
    09:00 +8°C° 0 mm 1 mps 750 mmHg 51%
    10:00 +11°C° 0 mm 1 mps 750 mmHg 43%
    11:00 +12°C° 0 mm 1 mps 749 mmHg 41%
    12:00 +13°C° 0 mm 2 mps 749 mmHg 38%
    13:00 +14°C° 0 mm 2 mps 749 mmHg 35%
    14:00 +14°C° 0 mm 2 mps 748 mmHg 37%
    15:00 +14°C° 0 mm 2 mps 748 mmHg 39%
    16:00 +14°C° 0 mm 2 mps 747 mmHg 41%
    17:00 +12°C° 0 mm 2 mps 747 mmHg 48%
    18:00 +8°C° 0 mm 2 mps 747 mmHg 54%
    19:00 +7°C° 0 mm 1 mps 747 mmHg 61%
    20:00 +7°C° 0 mm 1 mps 748 mmHg 63%
    21:00 +6°C° 0 mm 1 mps 748 mmHg 64%
    22:00 +6°C° 0 mm 1 mps 748 mmHg 66%
    23:00 +6°C° 0 mm 1 mps 748 mmHg 67%

    22 March, Friday

    Time Temperature Precipitation Wind Pressure Humidity
    00:00 +5°C° 0 mm 1 mps 748 mmHg 67%
    01:00 +5°C° 0 mm 1 mps 747 mmHg 68%
    02:00 +5°C° 0 mm 1 mps 747 mmHg 68%
    03:00 +5°C° 0 mm 1 mps 747 mmHg 68%
    04:00 +5°C° 0 mm 1 mps 747 mmHg 68%
    05:00 +5°C° 0 mm 1 mps 747 mmHg 67%
    06:00 +5°C° 0 mm 1 mps 747 mmHg 65%
    07:00 +6°C° 0 mm 1 mps 747 mmHg 64%
    08:00 +8°C° 0 mm 1 mps 747 mmHg 57%
    09:00 +11°C° 0 mm 1 mps 747 mmHg 49%
    10:00 +14°C° 0 mm 1 mps 747 mmHg 42%
    11:00 +15°C° 0 mm 1 mps 746 mmHg 40%
    12:00 +18°C° 0 mm 1 mps 746 mmHg 38%
    13:00 +19°C° 0 mm 1 mps 746 mmHg 35%
    14:00 +19°C° 0 mm 1 mps 745 mmHg 37%
    15:00 +18°C° 0 mm 1 mps 745 mmHg 39%
    16:00 +18°C° 0 mm 1 mps 744 mmHg 41%
    17:00 +15°C° 0 mm 1 mps 745 mmHg 48%
    18:00 +13°C° 0 mm 1 mps 745 mmHg 56%
    19:00 +9°C° 0 mm 0 mps 745 mmHg 63%
    20:00 +9°C° 0 mm 0 mps 745 mmHg 65%
    21:00 +9°C° 0 mm 1 mps 745 mmHg 66%
    22:00 +9°C° 0 mm 1 mps 745 mmHg 68%
    23:00 +8°C° 0 mm 1 mps 745 mmHg 69%

    23 March, Saturday

    Time Temperature Precipitation Wind Pressure Humidity
    00:00 +8°C° 0 mm 1 mps 745 mmHg 70%
    01:00 +8°C° 0 mm 1 mps 745 mmHg 71%
    02:00 +8°C° 0 mm 1 mps 745 mmHg 72%
    03:00 +7°C° 0 mm 1 mps 745 mmHg 72%
    04:00 +7°C° 0 mm 1 mps 745 mmHg 73%
    05:00 +7°C° 0 mm 1 mps 745 mmHg 72%
    06:00 +8°C° 0 mm 1 mps 745 mmHg 72%
    07:00 +8°C° 0 mm 1 mps 745 mmHg 71%
    08:00 +11°C° 0 mm 1 mps 745 mmHg 63%
    09:00 +13°C° 0 mm 0 mps 745 mmHg 55%
    10:00 +16°C° 0 mm 0 mps 745 mmHg 47%
    11:00 +17°C° 0 mm 0 mps 744 mmHg 44%
    12:00 +18°C° 0 mm 0 mps 744 mmHg 41%
    13:00 +21°C° 0 mm 1 mps 744 mmHg 39%
    14:00 +21°C° 0 mm 1 mps 743 mmHg 40%
    15:00 +21°C° 0 mm 1 mps 743 mmHg 41%
    16:00 +20°C° 0 mm 1 mps 742 mmHg 43%
    17:00 +18°C° 0 mm 1 mps 742 mmHg 50%
    18:00 +15°C° 0 mm 1 mps 742 mmHg 58%
    19:00 +12°C° 0 mm 1 mps 742 mmHg 65%
    20:00 +12°C° 0 mm 1 mps 742 mmHg 67%
    21:00 +11°C° 0 mm 1 mps 742 mmHg 69%
    22:00 +11°C° 0 mm 1 mps 742 mmHg 71%
    23:00 +10°C° 0 mm 1 mps 742 mmHg 72%

    24 March, Sunday

    Time Temperature Precipitation Wind Pressure Humidity
    00:00 +10°C° 0 mm 1 mps 742 mmHg 73%
    01:00 +10°C° 0 mm 1 mps 742 mmHg 74%
    02:00 +10°C° 0 mm 1 mps 742 mmHg 75%
    03:00 +9°C° 0 mm 1 mps 741 mmHg 76%
    04:00 +8°C° 0 mm 2 mps 741 mmHg 77%
    05:00 +8°C° 0 mm 2 mps 741 mmHg 77%
    06:00 +8°C° 0 mm 2 mps 741 mmHg 77%
    07:00 +9°C° 0 mm 2 mps 741 mmHg 76%
    08:00 +12°C° 0 mm 2 mps 741 mmHg 70%
    09:00 +13°C° 0 mm 3 mps 741 mmHg 64%
    10:00 +16°C° 0 mm 3 mps 741 mmHg 57%
    11:00 +17°C° 0 mm 4 mps 740 mmHg 55%
    12:00 +18°C° 0 mm 4 mps 740 mmHg 52%
    13:00 +19°C° 0 mm 5 mps 740 mmHg 50%
    14:00 +19°C° 0 mm 5 mps 739 mmHg 51%
    15:00 +17°C° 0 mm 5 mps 739 mmHg 52%
    16:00 +17°C° 0 mm 5 mps 738 mmHg 54%
    17:00 +15°C° 0 mm 4 mps 738 mmHg 62%
    18:00 +13°C° 0 mm 3 mps 738 mmHg 70%
    19:00 +13°C° 0 mm 2 mps 738 mmHg 78%
    20:00 +12°C° 0 mm 2 mps 739 mmHg 80%
    21:00 +10°C° 0 mm 2 mps 739 mmHg 83%
    22:00 +10°C° 0 mm 2 mps 739 mmHg 85%
    23:00 +10°C° 0 mm 2 mps 739 mmHg 86%
    Show more